| time (UTC) | temp F | wind direction | speed MPH | gust MPH | rain 1hr in | rain 24hr in | rain mn in | humidity % | barometer mb |
| 20260504140109 | 63 | 1.0 | 4.0 | 0.00 | 0.00 | 0.00 | 66 | 1015.4 | |
| 20260504081550 | 48 | 0.0 | 0.0 | 0.00 | 0.00 | 0.00 | 78 | 1016.4 | |
| 20260504044547 | 50 | 0.0 | 2.0 | 0.00 | 0.00 | 0.00 | 74 | 1015.7 | |
| 20260504043004 | 51 | 0.0 | 2.0 | 0.00 | 0.00 | 0.00 | 72 | 1015.7 | |
| 20260504041534 | 51 | 0.0 | 2.0 | 0.00 | 0.00 | 0.00 | 71 | 1015.7 | |
| 20260504040003 | 50 | 0.0 | 2.0 | 0.00 | 0.00 | 0.00 | 72 | 1015.6 | |
| 20260504034516 | 50 | 0.0 | 1.0 | 0.00 | 0.00 | 0.00 | 75 | 1015.5 | |
| 20260504033048 | 49 | 0.0 | 1.0 | 0.00 | 0.00 | 0.00 | 74 | 1015.6 | |
| 20260504031605 | 49 | 0.0 | 1.0 | 0.00 | 0.00 | 0.00 | 72 | 1015.4 | |
| 20260504030049 | 49 | 0.0 | 1.0 | 0.00 | 0.00 | 0.00 | 70 | 1015.4 | |
| 20260504024525 | 49 | 0.0 | 1.0 | 0.00 | 0.00 | 0.00 | 68 | 1015.5 | |
| 20260504023031 | 49 | 0.0 | 0.0 | 0.00 | 0.00 | 0.00 | 65 | 1015.4 | |
| 20260504021600 | 50 | 0.0 | 1.0 | 0.00 | 0.00 | 0.00 | 61 | 1015.4 | |
| 20260504020048 | 51 | 0.0 | 1.0 | 0.00 | 0.00 | 0.00 | 61 | 1015.2 | |
| 20260504014537 | 51 | 0.0 | 1.0 | 0.00 | 0.00 | 0.00 | 58 | 1015.2 | |
| 20260504013022 | 51 | 0.0 | 1.0 | 0.00 | 0.00 | 0.00 | 58 | 1015.0 | |
| 20260504011540 | 52 | 0.0 | 0.0 | 0.00 | 0.00 | 0.00 | 58 | 1015.0 | |
| 20260504010048 | 52 | 0.0 | 0.0 | 0.00 | 0.00 | 0.00 | 55 | 1014.9 | |
| 20260504004537 | 53 | 0.0 | 1.0 | 0.00 | 0.00 | 0.00 | 53 | 1014.6 | |
| 20260504003102 | 54 | 0.0 | 1.0 | 0.00 | 0.00 | 0.00 | 49 | 1014.5 | |
| 20260504001523 | 55 | 0.0 | 1.0 | 0.00 | 0.00 | 0.00 | 45 | 1014.3 | |
| 20260504000059 | 56 | 0.0 | 1.0 | 0.00 | 0.00 | 0.00 | 43 | 1014.2 | |
| 20260503234541 | 56 | 0.0 | 2.0 | 0.00 | 0.00 | 0.00 | 41 | 1014.1 | |
| 20260503233029 | 57 | 0.0 | 3.0 | 0.00 | 0.00 | 0.00 | 41 | 1013.9 | |
| 20260503231522 | 57 | 1.0 | 5.0 | 0.00 | 0.00 | 0.00 | 41 | 1013.9 | |
| 20260503230005 | 58 | 0.0 | 5.0 | 0.00 | 0.00 | 0.00 | 39 | 1013.7 | |
| 20260503224531 | 58 | 0.0 | 6.0 | 0.00 | 0.00 | 0.00 | 39 | 1013.6 | |
| 20260503223103 | 58 | 1.0 | 6.0 | 0.00 | 0.00 | 0.00 | 38 | 1013.5 | |
| 20260503221505 | 59 | 2.0 | 9.0 | 0.00 | 0.00 | 0.00 | 38 | 1013.6 | |
| 20260503220036 | 59 | 2.0 | 9.0 | 0.00 | 0.00 | 0.00 | 37 | 1013.5 | |
| 20260503214519 | 59 | 4.0 | 15.0 | 0.00 | 0.00 | 0.00 | 37 | 1013.4 | |
| 20260503213031 | 59 | 2.0 | 7.0 | 0.00 | 0.00 | 0.00 | 39 | 1013.1 | |
| 20260503211516 | 59 | 0.0 | 12.0 | 0.00 | 0.00 | 0.00 | 38 | 1013.0 | |
| 20260503204528 | 59 | 2.0 | 7.0 | 0.00 | 0.00 | 0.00 | 38 | 1013.2 | |
| 20260503203041 | 59 | 1.0 | 7.0 | 0.00 | 0.00 | 0.00 | 39 | 1013.2 | |
| 20260503201525 | 58 | 2.0 | 12.0 | 0.00 | 0.00 | 0.00 | 39 | 1013.4 | |
| 20260503200050 | 59 | 4.0 | 10.0 | 0.00 | 0.00 | 0.00 | 39 | 1013.3 | |
| 20260503194542 | 58 | 2.0 | 9.0 | 0.00 | 0.00 | 0.00 | 40 | 1013.1 | |
| 20260503193037 | 58 | 2.0 | 7.0 | 0.00 | 0.00 | 0.00 | 40 | 1013.5 | |
| 20260503191617 | 58 | 1.0 | 12.0 | 0.00 | 0.00 | 0.00 | 42 | 1013.4 | |
| 20260503190031 | 58 | 2.0 | 13.0 | 0.00 | 0.00 | 0.00 | 43 | 1013.7 | |
| 20260503184601 | 57 | 2.0 | 10.0 | 0.00 | 0.00 | 0.00 | 44 | 1013.8 | |
| 20260503183011 | 58 | 3.0 | 10.0 | 0.00 | 0.00 | 0.00 | 43 | 1013.9 | |
| 20260503181548 | 58 | 3.0 | 9.0 | 0.00 | 0.00 | 0.00 | 42 | 1013.7 | |
| 20260503180020 | 57 | 2.0 | 8.0 | 0.00 | 0.00 | 0.00 | 42 | 1013.8 | |
| 20260503174506 | 57 | 3.0 | 10.0 | 0.00 | 0.00 | 0.00 | 42 | 1013.8 | |
| 20260503173055 | 57 | 3.0 | 10.0 | 0.00 | 0.00 | 0.00 | 42 | 1013.9 | |
| 20260503171536 | 57 | 1.0 | 10.0 | 0.00 | 0.00 | 0.00 | 45 | 1014.0 |